Location: Newark
(36.7000°N, 45.1333°E)
Time: 03:58:04
(UTC+00:00)

LightSail 2 - Visible Passes

Search period start: 18 January 2020 00:00
Search period end: 28 January 2020 00:00
Orbit: 703 x 721 km, 24.0° (Epoch: 17 January)

Date Brightness Start Highest point End Pass type
(mag) Time Alt. Az. Time Alt. Az. Time Alt. Az.
18 Jan 7.4 15:30:19 10° SSW 15:32:41 13° SSE 15:35:04 10° SE visible
18 Jan 7.8 17:13:49 10° SW 17:14:22 12° SW 17:14:22 12° SW visible
19 Jan 7.6 14:33:28 10° S 14:34:29 11° SSE 14:35:30 10° SSE visible
19 Jan 7.0 16:15:43 10° SW 16:19:14 18° S 16:19:35 18° SSE visible
20 Jan 7.3 15:17:46 10° SSW 15:20:58 17° S 15:24:11 10° SE visible
20 Jan 7.5 17:02:06 10° SW 17:03:45 16° SSW 17:03:45 16° SSW visible
21 Jan 7.0 16:03:50 10° SW 16:07:31 20° S 16:08:58 17° SSE visible
22 Jan 7.2 15:05:39 10° SW 15:09:14 19° S 15:12:48 10° SE visible
22 Jan 7.3 16:50:35 10° SW 16:53:09 17° SSW 16:53:09 17° SSW visible
23 Jan 7.2 15:52:07 10° SW 15:55:45 19° S 15:58:24 13° SSE visible
24 Jan 7.2 14:53:46 10° SW 14:57:26 20° S 15:01:06 10° SE visible
24 Jan 7.4 16:39:19 10° SW 16:42:13 15° SSW 16:42:38 15° S visible
25 Jan 7.4 15:40:38 10° SW 15:43:55 17° S 15:47:13 10° SSE visible
26 Jan 7.4 14:42:05 10° SW 14:45:35 18° S 14:49:07 10° SE visible
26 Jan 7.7 16:28:47 10° SW 16:30:19 11° SSW 16:31:52 10° S visible
27 Jan 7.6 15:29:28 10° SW 15:32:01 14° SSW 15:34:34 10° SSE visible
